Location: Angola Crest Mobile Home Park
(38.6696°N, 75.1557°W)
Time: 04:42:47
(UTC+00:00)

Daily predictions for brighter satellites

Satellite Brightness Start Highest point End
(mag) Time Altitude Azimuth Time Altitude Azimuth Time Altitude Azimuth
CZ-2C R/B 3.1 00:37:29 10° NNE 00:42:52 45° E 00:48:13 10° S
SL-08 RB Rocket 3.8 00:41:04 10° SSE 00:45:40 68° ENE 00:50:13 10° N
Cosmos 1666 2.9 00:42:25 10° N 00:46:17 77° W 00:50:06 10° S
STARLINK-1206 3.6 00:42:41 10° SW 00:46:49 87° SE 00:50:58 10° NE
STARLINK-1159 4.0 00:45:10 10° NW 00:49:16 57° NE 00:53:21 10° ESE
NOSS 2-3 (D) 3.7 00:46:39 10° SSW 00:50:41 51° ESE 00:55:10 10° NE
STARLINK-1205 3.7 00:47:39 10° SW 00:51:48 85° NW 00:55:57 10° NE
Okean 1 3.8 00:49:45 10° SSE 00:53:34 43° E 00:57:25 10° NNE
STARLINK-1171 3.9 00:50:10 10° NW 00:54:17 62° NE 00:58:23 10° ESE
Meteor 1-4 Rocket 4.0 00:53:50 10° SE 00:56:18 19° E 00:58:48 10° NE
STARLINK-1218 3.8 00:52:37 10° SW 00:56:46 78° NW 01:00:54 10° NE
SPOT 3 Rocket 3.8 00:53:01 10° SSE 00:58:01 55° ENE 01:03:03 10° N
USA 186 2.6 00:56:55 10° SSW 00:59:09 36° W 01:01:32 10° NNW
STARLINK-1155 3.8 00:55:07 10° NW 00:59:15 69° NE 01:03:10 11° ESE
USA 229 DEB 4.0 00:54:49 10° SW 01:01:15 70° NW 01:08:02 10° NNE
USA 229 4.0 00:54:56 10° SW 01:01:22 70° NW 01:08:09 10° NNE
STARLINK-1254 4.0 00:57:37 10° SW 01:01:44 70° NW 01:05:53 10° NE
Cosmos 1624 Rocket 4.3 00:58:35 10° S 01:03:40 50° ESE 01:08:49 10° NNE
STARLINK-1166 3.7 01:00:05 10° NW 01:04:14 76° NE 01:07:57 13° SE
Cosmos 2278 Rocket 2.9 01:00:14 10° SSE 01:05:13 33° ESE 01:10:14 10° NE
Cosmos 614 Rocket 4.2 01:00:24 10° N 01:05:23 53° ENE 01:10:10 11° SE
Resurs 01 Rocket 2.4 01:01:20 10° SE 01:05:25 37° ENE 01:09:31 10° N
STARLINK-1231 4.1 01:02:37 10° WSW 01:06:44 64° NW 01:10:51 10° NE
Cosmos 44 Rocket 3.4 01:02:03 10° NNW 01:06:58 85° WSW 01:11:56 10° SSE
Cosmos 1140 Rocket 4.4 01:02:40 10° N 01:07:21 32° ENE 01:11:28 13° SE
STARLINK-1087 2.3 01:05:47 10° NW 01:07:42 45° NE 01:08:54 18° ESE
NOSS 3-1 (C) 4.2 01:03:01 10° SW 01:08:16 53° NW 01:14:18 10° NNE
STARLINK-1165 3.6 01:05:03 10° NW 01:09:12 83° NE 01:12:43 14° SE
H-2A R/B 3.3 01:04:36 10° SSW 01:09:15 40° W 01:14:02 10° NNW
Cosmos 1782 Rocket 4.3 01:05:15 10° N 01:09:25 37° ENE 01:13:04 13° SE
Cosmos 1844 Rocket 4.0 01:04:27 10° SW 01:09:51 44° WNW 01:15:16 10° N
NOSS 3-1 (A) 3.3 01:05:10 10° SW 01:10:30 84° WNW 01:16:39 10° NNE
STARLINK-1232 4.3 01:07:38 10° WSW 01:11:43 58° NW 01:15:49 10° NE
Cosmos 1607 4.4 01:05:35 10° NW 01:11:55 64° WSW 01:18:16 10° SSE
Cosmos 1703 Rocket 3.5 01:07:51 10° S 01:12:08 72° E 01:16:28 10° NNE
Cosmos 1536 4.4 01:08:50 10° NNW 01:12:35 37° W 01:16:20 10° SSW
STARLINK-1169 3.6 01:10:02 10° NW 01:14:10 89° SW 01:17:30 15° SE
STARLINK-1224 4.4 01:10:35 10° S 01:14:11 29° SE 01:17:47 10° ENE
CREW DRAGON DEMO-1 DEB 3.5 01:12:58 10° NW 01:15:57 45° NE 01:18:11 16° ESE
Meteor 1-19 Rocket 4.3 01:12:20 10° S 01:17:47 59° E 01:23:24 10° NNE
Cosmos 1371 Rocket 3.9 01:13:01 10° SSW 01:18:16 79° ESE 01:23:31 10° NNE
STARLINK-1225 4.3 01:15:25 10° SSW 01:19:07 32° SE 01:22:50 10° ENE
STARLINK-1178 3.6 01:15:01 10° NW 01:19:09 81° SW 01:22:18 17° SE
Cosmos 2034 Rocket 4.0 01:14:32 10° N 01:20:44 85° W 01:26:53 10° S
NOSS 2-3 (C) 3.8 01:17:10 10° SW 01:21:20 73° NW 01:26:06 10° NNE
SJ-6B 4.0 01:17:53 10° S 01:21:25 39° W 01:24:57 10° NNW
STARLINK-1230 4.1 01:20:17 10° SSW 01:24:05 36° SE 01:27:53 10° ENE
STARLINK-1120 3.7 01:19:59 10° NW 01:24:07 73° SW 01:27:05 18° SE
Cosmos 1544 3.7 01:21:31 10° N 01:24:57 38° E 01:27:03 20° SE
Cosmos 389 Rocket 3.3 01:22:30 10° SSW 01:25:50 50° WNW 01:29:14 10° N
Cosmos 1908 Rocket 3.8 01:23:39 10° NNW 01:28:05 72° W 01:32:31 10° S
NOSS 3 (A) 4.3 01:25:41 10° SSW 01:28:19 56° ESE 01:31:00 10° NE
STARLINK-1243 4.0 01:25:09 10° SSW 01:29:01 40° SE 01:32:54 10° ENE
STARLINK-1131 3.8 01:24:58 10° NW 01:29:05 66° SW 01:31:51 20° SE
Hubble Space Telescope 2.4 01:27:11 10° SW 01:30:09 19° S 01:31:25 17° SSE
Meteor 1-18 Rocket 4.2 01:25:19 10° S 01:30:52 88° W 01:36:32 10° N
BREEZE M DEB (TANK) 3.5 01:22:17 10° SW 01:32:59 74° SE 01:36:14 10° ENE
STARLINK-1236 3.9 01:30:04 10° SSW 01:34:00 44° SE 01:37:57 10° ENE
STARLINK-1190 3.9 01:29:58 10° NW 01:34:03 59° SW 01:36:37 21° SSE
Lacrosse 5 3.8 01:30:23 10° NNW 01:34:07 20° NNE 01:37:49 10° ENE
Spot 2 Rocket 4.2 01:31:07 18° SE 01:34:19 38° ENE 01:38:58 10° N
Iridium 51 4.3 01:31:52 12° S 01:35:36 67° E 01:39:24 10° N
Cosmos 371 Rocket 4.1 01:34:23 18° SSE 01:37:03 31° E 01:41:18 10° NE
Cosmos 1356 3.3 01:33:46 10° N 01:37:14 86° E 01:39:27 20° S
STARLINK-1129 4.0 01:34:59 10° WNW 01:39:02 53° SW 01:41:26 22° SSE
Resurs 1-3 4.2 01:37:30 10° S 01:41:48 56° W 01:46:08 10° NNW
MetOp-B 4.3 01:39:50 20° SSE 01:43:33 60° ENE 01:48:49 10° N
STARLINK-1269 3.6 01:39:51 10° SSW 01:43:54 55° SE 01:47:57 10° ENE
STARLINK-1134 4.2 01:40:00 10° WNW 01:43:59 48° SW 01:46:12 23° SSE
Cosmos 676 Rocket 4.5 01:39:10 10° N 01:44:13 46° ENE 01:47:09 23° SE
Cosmos 1023 Rocket 4.5 01:39:18 10° NNW 01:44:31 74° ENE 01:47:56 22° SSE
Meteor 2-4 Rocket 3.6 01:41:25 11° S 01:46:30 64° E 01:51:48 10° NNE
Cosmos 2056 Rocket 3.8 01:41:37 10° SSW 01:46:41 67° WNW 01:51:47 10° NNE
COSMOS 2406 3.3 01:40:58 10° NNW 01:46:43 64° ENE 01:50:17 23° SE
TELKOM 3 3.5 01:45:45 10° WNW 01:47:47 39° SW 01:47:49 39° SW
Cosmos 1743 3.9 01:44:56 10° NNW 01:48:30 39° W 01:52:02 10° SSW
STARLINK-1200 3.5 01:44:48 10° SW 01:48:53 62° SE 01:52:59 10° NE
STARLINK-1135 4.4 01:45:01 10° WNW 01:48:57 43° SW 01:51:00 24° S
IGS 5A 4.1 01:47:13 26° ESE 01:48:57 39° ENE 01:52:50 10° N
STARLINK-1077 4.5 01:47:18 10° NW 01:51:16 42° NE 01:53:29 22° E
STARLINK-1192 3.5 01:49:45 10° SW 01:53:51 69° SE 01:57:59 10° NE
Okean 3 3.4 01:51:40 21° S 01:54:28 68° E 01:58:46 10° NNE
Meteor 1-13 Rocket 4.5 01:51:21 21° SSE 01:54:45 49° E 02:00:11 10° NNE
GPS 2-04 Rocket1 3.4 01:53:02 10° SW 01:55:49 30° S 01:55:49 30° S
STARLINK-1075 4.3 01:52:15 10° NW 01:56:15 46° NE 01:58:15 25° E
STARLINK-1244 3.5 01:54:42 10° SW 01:58:49 76° SE 02:02:58 10° NE
Cosmos 1634 Rocket 4.0 01:54:22 10° N 02:00:43 86° E 02:05:16 20° S
STARLINK-1093 4.2 01:57:13 10° NW 02:01:15 50° NE 02:03:03 29° E
Cosmos 1461 4.4 02:04:40 21° E 02:04:40 21° E 02:06:49 10° ENE
STARLINK-1138 3.5 01:59:38 10° SW 02:03:46 84° SE 02:07:56 10° NE
H-2A R/B 4.0 02:01:36 10° SW 02:03:58 15° S 02:03:58 15° S
STARLINK-1074 4.0 02:02:10 10° NW 02:06:15 55° NE 02:07:49 33° E
STARLINK-1143 3.5 02:04:36 10° SW 02:08:44 88° NW 02:12:54 10° NE
SPOT 5 3.8 02:07:41 28° ESE 02:09:33 37° ENE 02:14:22 10° N
ERBS 3.9 02:08:35 10° WSW 02:11:40 36° NW 02:14:46 10° NNE
STARLINK-1203 3.7 02:08:52 10° SW 02:13:03 80° NW 02:17:16 10° NE
STARLINK-1241 3.6 02:09:36 10° SW 02:13:44 80° NW 02:17:53 10° NE
STARLINK-1088 3.7 02:12:05 10° NW 02:16:13 66° NE 02:17:23 43° ESE
Cosmos 1300 Rocket 3.5 02:11:50 10° N 02:16:16 69° E 02:17:35 43° SSE
Landsat 7 3.7 02:15:16 35° SSE 02:17:16 85° ENE 02:22:03 10° NNW
Cosmos 1452 Rocket 3.4 02:13:28 18° SSW 02:17:25 80° ESE 02:22:42 10° NNE
STARLINK-1239 3.8 02:14:35 10° SW 02:18:42 73° NW 02:22:51 10° NE
Cosmos 2082 Rocket 2.8 02:13:58 10° N 02:19:28 45° ENE 02:21:36 32° ESE
Cosmos 304 Rocket 4.3 02:20:05 37° ESE 02:20:23 38° ESE 02:24:48 10° NE
STARLINK-1115 3.6 02:17:03 10° NW 02:21:12 73° NE 02:22:10 50° ESE
Cosmos 1420 Rocket 4.4 02:16:48 10° SSW 02:21:57 63° WNW 02:27:07 10° NNE
Cosmos 1932 4.5 02:16:18 10° NNW 02:22:52 87° ENE 02:25:48 35° SSE
Cosmos 1833 Rocket 2.6 02:17:43 10° NNW 02:23:22 80° ENE 02:25:34 39° SSE
STARLINK-1240 3.9 02:19:35 10° WSW 02:23:42 66° NW 02:27:50 10° NE
STARLINK-1076 3.5 02:22:01 10° NW 02:26:11 80° NE 02:26:57 57° ESE
Aureole 1 Rocket 4.4 02:23:06 10° NW 02:27:24 41° WSW 02:30:36 22° SSW
CZ-4B DEB 4.2 02:28:02 80° ENE 02:28:02 80° ENE 02:31:20 10° N
STARLINK-1216 4.1 02:24:35 10° WSW 02:28:40 60° NW 02:32:47 10° NE
Cosmos 1674 Rocket 3.5 02:28:04 54° SE 02:28:47 64° E 02:33:07 10° NNE
Cosmos 2369 Rocket 4.2 02:31:29 12° E 02:31:29 12° E 02:32:34 10° ENE
Cosmos 332 Rocket 3.7 02:28:28 34° S 02:30:36 80° ESE 02:35:32 10° NNE
STARLINK-1092 3.5 02:26:58 10° NW 02:31:08 88° NE 02:31:42 65° SE
Cosmos 1943 Rocket 3.7 02:33:20 19° E 02:33:20 19° E 02:36:10 10° NE
STARLINK-1237 4.3 02:29:36 10° WSW 02:33:40 55° NW 02:37:44 10° NE
USA 245 3.8 02:33:12 40° SW 02:33:49 44° WSW 02:36:49 10° NNW
Cosmos 1378 Rocket 3.6 02:34:29 54° ESE 02:34:48 55° E 02:39:07 10° NNE
STARLINK-1080 3.4 02:32:01 10° NW 02:36:09 84° SW 02:36:32 72° SSE
Cosmos 1066 Rocket 4.1 02:36:48 46° SSE 02:38:09 60° E 02:43:27 10° NNE
STARLINK-1202 4.5 02:34:38 10° WSW 02:38:40 50° NW 02:42:43 10° NE
Cosmos 1437 Rocket 2.6 02:39:15 73° SW 02:39:33 81° W 02:43:21 10° N
ISS -1.8 02:37:11 10° NNW 02:39:58 23° NNE 02:40:32 22° NE
STARLINK-1090 3.5 02:36:57 10° NW 02:41:06 76° SW 02:41:17 74° SSW
Resurs 01 Rocket 3.9 02:38:54 10° SW 02:42:00 18° W 02:45:07 10° NW
EXPRESS MD2 3.6 02:39:54 10° WSW 02:42:58 68° NNW 02:48:51 10° NE
ATLAS 3B CENTAUR R/B 3.7 02:34:58 10° SW 02:43:50 29° S 02:43:50 29° S
SPOT 1/Viking Rocket 3.8 02:42:35 38° SSW 02:44:27 64° WSW 02:49:35 10° NNW
STARLINK-1089 3.6 02:41:56 10° NW 02:46:04 69° SW 02:46:04 69° SW
Cosmos 2278 Rocket 3.8 02:44:09 10° WSW 02:49:14 33° WNW 02:54:20 10° N
STARLINK-1107 3.8 02:46:56 10° NW 02:50:50 61° WSW 02:50:50 61° WSW
Meteor 1-15 Rocket 4.3 02:46:20 10° N 02:52:16 73° E 02:53:45 51° SSE
SL-4 R/B 2.8 02:49:22 10° NNW 02:51:20 35° NNW 02:51:20 35° NNW
Cosmos 972 Rocket 4.3 02:51:11 43° S 02:53:19 78° ESE 02:59:56 10° NNE
Cosmos 1741 Rocket 3.9 02:49:36 10° NNW 02:54:50 74° ENE 02:55:39 61° SE
STARLINK-1066 4.0 02:51:58 10° WNW 02:55:39 53° WSW 02:55:39 53° WSW
STARLINK-1081 4.3 02:56:57 10° WNW 03:00:25 46° WSW 03:00:25 46° WSW
ERS-1 Rocket 3.3 03:00:12 47° SSW 03:01:19 60° WSW 03:06:18 10° NNW
SeaSat 1 2.9 02:56:40 10° NE 03:00:45 45° E 03:00:45 45° E
Terra 1.6 03:01:35 74° SSE 03:02:00 85° ENE 03:06:47 10° NNW
Cosmos 2026 Rocket 4.5 03:01:47 40° ESE 03:02:27 41° E 03:08:19 10° NNE
NOSS 2-2 (E) 4.3 03:07:04 37° NNE 03:07:04 37° NNE 03:09:29 10° NNE
Cosmos 1766 4.4 03:02:51 10° N 03:05:44 35° NE 03:05:44 35° NE
Cosmos 1850 Rocket 3.9 03:02:08 10° NNW 03:07:30 82° WSW 03:08:14 66° S
Cosmos 1110 Rocket 3.9 03:09:30 66° SSW 03:10:17 88° WNW 03:15:30 10° NNE
STARLINK-1116 4.4 03:09:13 10° NW 03:13:10 44° NNE 03:13:10 44° NNE
Okean 1 Rocket 3.1 03:09:50 10° N 03:14:11 76° WNW 03:14:11 76° WNW
Nadezhda 4 Rocket 4.1 03:14:13 40° SSW 03:16:29 67° W 03:22:36 10° N
Lacrosse 5 1.7 03:12:37 10° NW 03:17:42 89° NE 03:17:49 86° ESE
STARLINK-1094 4.3 03:19:09 10° NW 03:22:45 50° N 03:22:45 50° N
Cosmos 1455 Rocket 4.3 03:20:52 10° N 03:23:58 32° NE 03:23:58 32° NE
STARLINK-1117 4.4 03:24:06 10° NW 03:27:31 50° N 03:27:31 50° N
ATLAS 2AS CENTAUR R/B 3.8 03:30:08 33° ESE 03:30:08 33° ESE 03:36:36 10° NE
Cosmos 1331 Rocket 4.3 03:31:02 54° WSW 03:31:50 62° WNW 03:36:59 10° NNE
STARLINK-1078 4.4 03:29:04 10° NW 03:32:19 49° NNW 03:32:19 49° NNW
Cosmos 1302 Rocket 4.0 03:38:22 70° ENE 03:38:22 70° ENE 03:43:14 10° NNE
USA 238 DEB 4.4 03:41:35 10° NNW 03:48:37 51° NE 03:51:05 38° E
USA 238 4.4 03:41:41 10° NNW 03:48:43 50° NE 03:51:13 37° E
ALOS 2 4.1 03:53:11 28° NE 03:53:11 28° NE 03:56:12 10° N
Meteor 1-22 Rocket 4.2 03:48:50 10° NNW 03:54:45 72° W 03:54:59 71° WSW
Cosmos 1092 Rocket 4.5 03:55:34 43° WSW 03:56:57 51° W 04:02:55 10° N
Meteor 2-13 Rocket 4.3 03:57:48 73° SW 03:58:21 80° W 04:04:33 10° N
Cosmos 2082 Rocket 3.7 03:58:45 10° NW 04:03:11 24° W 04:03:27 24° WSW
Thor Agena Rocket 3.9 04:01:34 10° N 04:06:45 56° WNW 04:07:01 56° W
ATLAS CENTAUR R/B 4.2 04:13:51 11° ENE 04:13:51 11° ENE 04:14:04 10° ENE
Cosmos 2369 Rocket 2.2 04:13:14 75° WNW 04:13:14 75° WNW 04:18:54 10° NNE
Aureole 3 Rocket 4.2 04:07:59 10° N 04:14:00 89° E 04:14:58 70° S
Cosmos 1943 Rocket 2.7 04:14:48 47° W 04:15:30 50° WNW 04:20:55 10° NNE
FALCON 9 R/B 4.3 04:25:00 22° E 04:25:00 22° E 04:29:19 10° E
USA 215 3.4 04:25:17 51° E 04:26:54 70° NE 04:33:25 10° NW
BREEZE-M DEB (TANK) 4.0 04:21:49 10° WNW 04:30:31 53° NNE 04:30:37 53° NNE
S3M 3.8 04:27:04 10° N 04:33:15 84° E 04:33:15 84° E
Cosmos 1655 Rocket 3.9 04:35:13 82° W 04:35:17 82° W 04:41:34 10° N
SeaSat 1 4.4 04:34:50 10° N 04:38:38 23° NW 04:40:31 18° W
Helios 1A 4.4 04:42:08 36° NNE 04:42:08 36° NNE 04:44:48 10° N
NOSS 3-2 (C) 4.1 04:38:46 10° NNW 04:46:31 76° NE 04:48:46 53° SE
Cosmos 1553 Rocket 4.3 04:43:26 10° NNW 04:49:31 52° W 04:49:33 52° W
NOSS 3-4 (A) 3.3 04:52:00 81° NW 04:52:00 81° NW 04:58:07 10° NNE
NOSS 3-4 (C) 3.3 04:52:07 81° NNW 04:52:07 81° NNW 04:58:14 10° NNE
Cosmos 1656 Rocket 3.9 04:55:34 66° NW 04:55:34 66° NW 05:00:51 10° NNE
Cosmos 1503 Rocket 4.3 04:50:39 10° NNW 04:55:11 64° N 04:55:11 64° N
ATLAS 3B R/B 3.8 04:50:10 10° NNW 04:56:27 38° NE 05:00:19 22° E
CENTAUR R/B 3.2 04:50:15 10° NNW 04:58:32 78° NE 05:01:10 50° SE
Cosmos 968 Rocket 4.1 04:53:50 10° NNW 04:57:43 49° NW 04:57:43 49° NW
Cosmos 1953 4.2 04:54:59 10° NNW 04:57:00 28° NNW 04:57:00 28° NNW
In-Cosmos 22 4.4 05:04:34 60° NW 05:04:34 60° NW 05:09:09 10° N
Cosmos 1833 4.3 05:05:12 10° NNW 05:10:07 68° NW 05:10:07 68° NW
Cosmos 1354 Rocket 4.4 05:06:58 10° NNW 05:11:18 60° NNW 05:11:18 60° NNW
Cosmos 1867 3.9 05:10:29 10° NNW 05:15:45 60° NE 05:15:45 60° NE
Cosmos 2266 Rocket 4.3 05:17:31 51° W 05:17:38 51° W 05:23:32 10° N
ATLAS 2AS CENTAUR R/B 3.4 05:17:31 39° WSW 05:20:21 57° NW 05:28:12 10° NNE
SL-4 R/B 3.3 05:22:07 46° NNW 05:22:07 46° NNW 05:26:22 10° NE
Meteor 2-14 Rocket 4.5 05:25:33 65° E 05:25:34 65° E 05:31:38 10° NNE
Cosmos 1244 Rocket 4.4 05:27:54 74° ESE 05:28:01 74° E 05:34:12 10° N
BREEZE-M R/B 4.4 05:30:04 38° ENE 05:30:04 38° ENE 05:32:14 10° ENE
COSMOS 2455 3.0 05:28:14 63° WNW 05:28:27 63° WNW 05:34:27 10° NNE
Cosmos 2098 Rocket 4.2 05:29:07 65° WSW 05:29:40 67° W 05:37:01 10° N
Cosmos 1809 Rocket 4.3 05:31:04 89° SW 05:31:06 89° WNW 05:37:19 10° N
SL-16 R/B 4.4 05:28:37 13° ESE 05:32:20 23° ENE 05:36:59 10° NNE
Cosmos 2228 4.4 05:28:09 10° N 05:30:44 36° NNW 05:30:44 36° NNW
Cosmos 921 Rocket 4.4 05:37:25 34° NE 05:37:25 34° NE 05:40:03 10° NNE
SJ 16-02 4.2 05:37:04 10° NE 05:38:11 11° ENE 05:39:18 10° ENE
CZ-4 R/B 4.4 05:35:42 10° N 05:39:34 52° NNW 05:39:34 52° NNW
Cosmos 2058 Rocket 4.0 05:40:09 10° N 05:43:24 47° NNE 05:43:24 47° NNE
ATLAS CENTAUR R/B 3.0 05:50:01 31° NNW 05:50:01 31° NNW 05:53:10 10° NNE
CZ-2D R/B 3.5 05:46:42 10° NE 05:51:04 26° E 05:51:15 26° E
Resurs 1-4 Rocket 3.4 05:48:53 10° NE 05:53:27 29° E 05:53:42 29° E
Okean 1-7 Rocket 4.5 05:57:24 45° NNW 05:57:24 45° NNW 06:00:43 10° N
Cosmos 1697 Rocket 4.5 05:57:02 19° ESE 05:57:38 19° E 06:01:30 10° NE
Cosmos 2227 Rocket 4.1 05:56:22 10° N 06:01:00 25° NE 06:05:36 10° ESE
RESURS DK-1 3.6 06:03:12 38° NNW 06:03:12 38° NNW 06:06:04 10° NNE
GEOS 3 Rocket 4.1 06:01:42 42° ESE 06:03:10 56° NE 06:08:19 10° NNW
SL-08 R/B 4.3 06:02:41 75° SSW 06:03:13 83° W 06:09:36 10° N
Cosmos 1626 4.1 06:09:01 26° NNW 06:09:01 26° NNW 06:10:53 10° N
Meteor 1-24 Rocket 3.9 06:09:34 53° WNW 06:09:34 53° WNW 06:14:35 10° N
Cosmos 1656 4.1 06:12:40 50° ESE 06:12:55 50° ESE 06:18:21 10° NNE
NPP 4.5 06:08:48 10° NNE 06:13:49 38° E 06:14:27 37° ESE
Cosmos 1300 4.4 06:10:50 10° NNW 06:12:53 30° NNW 06:12:53 30° NNW
Meteor 2-16 Rocket 4.3 06:14:46 68° WSW 06:15:16 71° W 06:21:24 10° N
SL-19 R/B 4.2 06:10:33 10° N 06:16:01 73° WNW 06:16:20 71° W
Cosmos 1386 Rocket 4.3 06:17:38 71° S 06:18:21 86° E 06:24:31 10° N
Cosmos 1356 Rocket 4.1 06:14:44 10° N 06:18:02 52° NNE 06:18:02 52° NNE
Cosmos 1812 Rocket 4.4 06:15:20 10° N 06:19:38 45° E 06:19:41 45° E
Cosmos 1709 Rocket 4.4 06:21:35 44° SE 06:23:00 54° E 06:28:57 10° NNE
CZ-4C R/B 2.8 06:25:53 36° ESE 06:25:53 36° ESE 06:30:51 10° NE
Cosmos 1602 Rocket 3.8 06:27:39 63° N 06:27:39 63° N 06:31:19 10° N
Cosmos 2369 4.5 06:36:08 36° SE 06:37:14 40° ESE 06:42:28 10° NE
Meteor 1-21 Rocket 4.1 06:42:12 63° S 06:43:08 84° E 06:48:49 10° N
Cosmos 1763 Rocket 3.5 06:44:29 60° SE 06:45:04 66° ESE 06:50:07 10° NNE
ATLAS 3B R/B 3.0 06:40:45 10° NW 06:47:14 45° WSW 06:47:30 45° WSW
Nadezhda 1 Rocket 4.0 06:41:16 10° NNW 06:47:21 60° W 06:48:24 53° SW
CENTAUR R/B 4.2 06:42:11 10° WNW 06:48:18 25° WSW 06:48:18 25° WSW
IRS-1D 4.3 06:44:00 10° NNE 06:49:07 46° E 06:50:36 36° SE
UNK 3.6 06:49:10 77° SSE 06:49:29 87° E 06:54:07 10° NNW
Lacrosse 4 Rocket 4.3 06:47:10 10° N 06:49:58 17° NE 06:52:43 10° E
Cosmos 1980 Rocket 3.6 06:48:47 23° SE 06:50:48 28° ESE 06:55:32 10° NE
GP-B 3.6 06:46:36 10° NNE 06:50:56 52° E 06:51:38 46° ESE
Cosmos 1328 4.3 06:52:53 51° E 06:52:57 51° E 06:56:49 10° NNE
Cosmos 1455 2.5 06:52:06 10° N 06:55:32 62° NE 06:55:32 62° NE
Cosmos 2219 3.0 06:51:43 10° NNW 06:57:24 81° WSW 06:59:00 48° S
MOZ.5/SAFIR/RUBIN 5/SL-8 4.0 06:59:56 51° W 06:59:56 51° W 07:04:08 10° NNW
ATLAS CENTAUR R/B 2.8 07:02:11 10° NNW 07:05:26 59° NE 07:13:12 10° SE
Cosmos 1758 Rocket 3.4 07:05:35 73° WSW 07:05:45 74° W 07:10:07 10° N
Cosmos 2297 Rocket 2.1 07:03:41 10° NNW 07:09:21 81° WSW 07:11:45 36° SSE
BREEZE-M DEB (TANK) 4.2 07:12:10 20° NNE 07:12:10 20° NNE 07:13:21 10° NE
SL-19 R/B 4.5 07:09:32 43° SSW 07:11:30 64° WSW 07:17:55 10° NNW
BREEZE-M DEB (TANK) 3.4 07:12:55 42° S 07:14:00 52° SE 07:24:51 10° ENE
ARIANE 5 R/B 3.7 07:10:23 10° NNE 07:15:01 36° E 07:17:44 21° SSE
Cosmos 2082 4.3 07:09:27 10° NNW 07:15:01 56° ENE 07:20:31 10° SE
SL-16 R/B 2.6 07:13:43 42° SSW 07:15:28 56° WSW 07:21:32 10° NNW
AQUA 3.8 07:10:56 10° N 07:15:39 66° WNW 07:16:34 53° SW
SJ 16-02 1.2 07:12:51 10° NNW 07:17:16 71° WSW 07:17:48 62° SSW
Cosmos 2278 4.0 07:15:36 36° S 07:17:46 61° ESE 07:23:21 10° NNE
Cosmos 468 Rocket 4.3 07:16:46 43° WSW 07:17:50 50° WNW 07:22:50 10° N
STARLINK-1238 4.4 07:15:02 10° NW 07:19:05 52° NE 07:23:08 10° ESE
Cosmos 2184 Rocket 4.4 07:15:39 23° SSE 07:19:26 57° E 07:25:27 10° NNE
Cosmos 1898 Rocket 3.4 07:14:49 10° NNW 07:20:10 85° WSW 07:22:50 30° SSE
ADEOS II 2.2 07:16:42 10° NNE 07:21:58 73° ESE 07:24:11 35° S
Cosmos 1953 Rocket 3.5 07:21:24 53° S 07:22:26 89° ESE 07:26:54 10° N
STARLINK-1201 4.2 07:20:00 10° NW 07:24:05 58° NE 07:28:10 10° ESE
Cosmos 1937 Rocket 3.6 07:21:36 10° NNW 07:26:52 79° ENE 07:31:08 16° SSE
Cosmos 1570 Rocket 4.0 07:26:49 42° SSW 07:28:40 81° WNW 07:34:00 10° NNE
STARLINK-1206 4.0 07:24:57 10° NW 07:29:03 63° NE 07:33:10 10° ESE
Cosmos 1703 3.6 07:29:00 47° W 07:29:11 47° W 07:33:01 10° N
IRS-P3 4.1 07:23:58 10° NNE 07:29:19 78° ESE 07:31:50 32° S
CZ-2D R/B 3.0 07:26:26 10° N 07:31:08 35° WNW 07:32:35 29° W
Cosmos 1400 Rocket 3.6 07:27:41 10° N 07:31:43 51° ENE 07:34:36 18° SSE
Meteor 1-11 4.2 07:29:36 32° S 07:32:22 84° E 07:37:59 10° N
Resurs 1-4 Rocket 3.1 07:28:33 10° N 07:33:13 33° WNW 07:34:47 28° W
STARLINK-1205 3.8 07:29:55 10° NW 07:34:03 70° NE 07:38:10 10° SE
Cosmos 2208 Rocket 3.9 07:32:31 38° SSW 07:34:33 86° WNW 07:39:53 10° NNE
Cosmos 2181 Rocket 4.0 07:28:50 10° NNW 07:35:14 68° W 07:38:57 26° S
STARLINK-43 3.3 07:36:02 60° S 07:36:29 68° SE 07:40:09 10° NE
STARLINK-1218 3.7 07:34:52 10° NW 07:39:01 77° NE 07:43:09 10° SE
Cosmos 1814 Rocket 4.0 07:38:33 34° SSW 07:40:57 85° WNW 07:46:19 10° NNE
Cosmos 1697 Rocket 3.0 07:38:46 33° SW 07:41:04 55° WNW 07:46:39 10° NNE
IDEFIX/ARIANE 42P 3.9 07:38:33 10° NNE 07:43:21 34° E 07:48:06 10° SSE
STARLINK-1254 3.6 07:39:50 10° NW 07:44:00 84° NE 07:48:08 10° SE
Cosmos 2227 Rocket 2.5 07:39:52 10° NW 07:45:15 46° WSW 07:47:50 28° SSW
SL-08 R/B 3.4 07:41:13 14° SSE 07:45:17 76° ENE 07:49:56 10° N
Cosmos 858 Rocket 4.5 07:43:32 10° NNW 07:48:45 64° WSW 07:52:36 18° S
STARLINK-1231 3.5 07:44:49 10° NW 07:48:59 88° SW 07:53:06 10° SE
Cosmos 540 Rocket 3.5 07:46:55 33° SW 07:49:10 65° WNW 07:54:17 10° NNE
SL-16 R/B 4.0 07:46:41 10° SSE 07:51:17 26° ESE 07:55:54 10° NE
Cosmos 2154 Rocket 4.3 07:46:20 14° S 07:51:48 66° E 07:58:01 10° NNE
STARLINK-1232 3.5 07:49:48 10° NW 07:53:58 80° SW 07:58:05 10° SE
CZ-2D R/B 3.9 07:50:35 10° NNE 07:54:42 58° E 07:57:35 19° S
COBE Rocket 4.2 07:51:02 10° SSE 07:55:54 72° ENE 08:00:57 10° N
ERS-1 4.5 07:52:21 10° NNE 07:57:33 83° WNW 08:00:54 23° SSW
ERS-2 2.4 07:55:16 11° SSE 07:58:42 66° ENE 08:02:21 10° N
STARLINK-1208 3.5 07:54:48 10° NW 07:58:55 72° SW 08:03:02 10° SE
Iridium 2 3.7 07:55:55 10° N 07:59:41 77° E 08:02:25 18° S
FALCON 9 R/B 4.5 07:52:19 10° W 08:00:37 66° S 08:36:18 10° ESE
CZ-4C R/B 4.4 07:59:45 10° SE 08:03:07 41° ENE 08:06:34 10° N
BREEZE-M DEB (TANK) 2.5 08:01:34 10° NW 08:03:38 40° NNE 08:05:59 10° ESE
STARLINK-1271 3.5 07:59:46 10° NW 08:03:52 65° SW 08:07:59 10° SE
Cosmos 2285 Rocket 4.1 08:01:59 10° NNW 08:08:10 54° WSW 08:14:16 10° S
STARLINK-1154 3.6 08:04:46 10° NW 08:08:51 58° SW 08:12:54 10° SE
Cosmos 372 Rocket 4.0 08:05:00 10° NNW 08:10:09 85° ENE 08:15:19 10° SSE
Cosmos 841 Rocket 4.2 08:07:29 23° WSW 08:10:12 38° WNW 08:15:06 10° N
Cosmos-2242 4.3 08:08:03 10° NW 08:11:19 22° W 08:12:05 21° WSW
Cosmos 2221 2.7 08:09:22 10° N 08:13:42 73° E 08:18:02 10° SSE
STARLINK-1197 3.7 08:09:46 10° WNW 08:13:48 52° SW 08:17:49 10° SSE
CZ-4C R/B 3.3 08:11:04 16° W 08:14:22 30° NW 08:19:29 10° NNE
STARLINK-42 3.3 08:13:40 28° SSW 08:15:02 53° SE 08:18:10 10° ENE
STARLINK-1301 4.0 08:16:27 22° SSW 08:18:14 40° SE 08:21:30 10° ENE
STARLINK-1198 3.8 08:14:49 10° WNW 08:18:48 47° SW 08:22:46 10° SSE
STARLINK-1316 4.0 08:17:21 21° S 08:18:51 35° SE 08:21:44 10° ENE
STARLINK-1311 3.6 08:17:38 24° S 08:18:58 39° SE 08:21:47 10° ENE
Uosat 12 SS-18 rocket 4.1 08:14:47 10° NNW 08:19:08 83° ENE 08:23:51 10° SSE
STARLINK-1257 3.9 08:18:14 21° S 08:19:45 36° SE 08:22:39 10° ENE
STARLINK-1256 3.9 08:19:06 21° S 08:20:40 37° SE 08:23:34 10° ENE
IRIDIUM 106 4.3 08:15:58 11° S 08:21:00 81° W 08:26:15 10° N
STARLINK-1307 4.1 08:19:20 20° SSW 08:21:18 38° SE 08:24:33 10° ENE
STARLINK-1213 3.8 08:19:58 21° S 08:21:33 37° SE 08:24:29 10° ENE
STARLINK-1263 3.8 08:20:50 21° S 08:22:27 38° SE 08:25:23 10° ENE
STARLINK-1290 4.0 08:21:03 19° SSW 08:23:00 39° SE 08:26:13 10° ENE
STARLINK-1259 3.8 08:21:43 21° SSW 08:23:23 39° SE 08:26:19 10° ENE
STARLINK-1199 3.9 08:19:48 10° WNW 08:23:43 42° SW 08:27:38 10° SSE
STARLINK 1040 3.7 08:22:42 21° W 08:23:50 30° NW 08:26:12 10° NNE
STARLINK-1265 3.7 08:22:10 21° SSW 08:23:52 40° SE 08:26:49 10° ENE
Meteor 1-27 4.3 08:18:32 10° NNW 08:23:59 58° W 08:29:24 10° S
STARLINK-1285 3.7 08:22:34 21° SSW 08:24:14 40° SE 08:27:12 10° ENE
Cosmos 2058 3.0 08:20:14 11° S 08:24:16 77° E 08:28:29 10° N
STARLINK-1297 3.9 08:23:33 19° SSW 08:25:36 42° SE 08:28:50 10° ENE
STARLINK-1268 3.6 08:24:01 20° SSW 08:25:44 42° SE 08:28:41 10° ENE
USA 234 3.6 08:19:19 10° NE 08:25:46 59° SE 08:31:41 13° SSW
STARLINK-1296 3.6 08:24:19 20° SSW 08:26:04 42° SE 08:29:03 10° ENE
STARLINK-1260 3.6 08:25:11 20° SSW 08:26:58 43° SE 08:29:57 10° ENE
Cosmos 2360 Rocket 4.3 08:23:09 10° SSE 08:27:19 22° E 08:31:30 10° NE
STARLINK-1318 3.6 08:26:04 20° SSW 08:27:52 45° SE 08:30:53 10° ENE
STARLINK-1210 4.1 08:24:50 10° WNW 08:28:41 38° SW 08:32:31 10° SSE
STARLINK-1275 3.5 08:26:53 20° SSW 08:28:43 46° SE 08:31:44 10° ENE
Lacrosse 4 Rocket 1.6 08:24:49 10° NW 08:28:56 47° WSW 08:32:55 10° S
STARLINK-62 4.3 08:27:05 15° S 08:29:08 31° SE 08:31:59 10° ENE
Nadezhda 3 Rocket 4.0 08:23:01 10° N 08:29:18 77° W 08:35:36 10° S
STARLINK-26 3.1 08:27:13 21° SW 08:29:20 83° NW 08:32:48 10° NE
STARLINK-1309 3.5 08:27:47 20° SSW 08:29:39 47° SE 08:32:40 10° ENE
Meteor 1-28 Rocket 3.5 08:27:20 13° S 08:30:32 44° W 08:34:10 10° NNW
STARLINK-1282 3.4 08:28:38 19° SSW 08:30:32 48° SE 08:33:33 10° ENE
STARLINK-34 4.2 08:28:55 15° S 08:31:01 32° SE 08:33:54 10° ENE
STARLINK-1313 3.1 08:29:41 20° SSW 08:31:35 59° SE 08:34:40 10° NE
STARLINK-55 2.9 08:29:57 21° SW 08:31:55 79° NW 08:35:07 10° NE
STARLINK-1279 3.1 08:30:36 20° SSW 08:32:33 61° SE 08:35:38 10° NE
STARLINK-1298 3.3 08:31:14 19° SSW 08:33:14 52° SE 08:36:17 10° ENE
STARLINK-1219 4.2 08:29:52 10° WNW 08:33:37 34° SW 08:37:22 10° SSE
STARLINK-1293 3.3 08:32:08 18° SSW 08:34:10 53° SE 08:37:13 10° ENE
Cosmos 1980 Rocket 3.0 08:30:34 16° WSW 08:34:35 37° WNW 08:39:48 10° N
MSX 4.1 08:28:51 10° NNE 08:34:38 73° ESE 08:40:20 10° S
STARLINK-1255 3.2 08:33:49 18° SSW 08:35:55 56° SE 08:38:58 10° ENE
STARLINK-1211 4.3 08:34:55 10° WNW 08:38:35 31° SW 08:42:14 10° SSE
Cosmos 1892 2.6 08:37:04 10° SSW 08:40:52 70° W 08:44:41 10° N
STARLINK-1244 4.4 08:36:58 10° NW 08:41:02 56° NE 08:45:06 10° ESE
Cosmos 2341 Rocket 4.1 08:34:53 10° S 08:41:16 90° ENE 08:47:40 10° N
CZ-4B R/B 3.3 08:39:01 10° SE 08:41:43 29° ENE 08:44:26 10° N
STARLINK-1317 3.2 08:39:26 16° SW 08:42:10 76° SE 08:45:39 10° NE
NOSS 2-1 (C) 3.2 08:39:06 12° SSW 08:42:11 65° ESE 08:45:36 10° NE
STARLINK-28 3.3 08:39:50 16° WSW 08:42:12 55° NW 08:45:22 10° NE
ERBS 4.4 08:39:12 10° NNW 08:42:15 31° NE 08:45:17 10° ESE
H-2A R/B 2.3 08:38:30 10° S 08:42:40 49° W 08:46:57 10° NNW
STARLINK-1245 4.5 08:39:58 10° WNW 08:43:31 28° SW 08:47:04 10° S
SAR-Lupe-4 4.1 08:41:54 10° SSE 08:45:26 62° ENE 08:48:59 10° N
STARLINK-1138 4.2 08:41:54 10° NW 08:46:01 61° NE 08:50:06 10° ESE
NOSS 2-1 (D) 3.0 08:43:28 12° SSW 08:46:39 76° ESE 08:50:05 10° NE
STARLINK-41 3.0 08:44:31 15° WSW 08:47:01 70° NW 08:50:09 10° NE
deb Chang Zheng 4 3.8 08:43:43 10° NNE 08:48:02 73° ESE 08:52:17 10° S
STARLINK-1291 3.0 08:46:26 14° SW 08:49:13 82° SE 08:52:31 10° NE
Cosmos 2150 Rocket 4.1 08:44:22 10° NNW 08:49:24 55° WSW 08:54:23 10° S
STARLINK-1143 4.0 08:46:52 10° NW 08:51:00 67° NE 08:55:06 10° ESE
STARLINK-1264 3.0 08:48:47 13° SW 08:51:41 87° SE 08:55:00 10° NE
STARLINK-1267 3.0 08:50:30 12° SW 08:53:28 89° N 08:56:47 10° NE
ARIANE 5 R/B 3.8 08:49:52 10° NNW 08:53:54 25° WNW 08:57:54 10° WSW
STARLINK-1272 3.0 08:52:10 12° SW 08:55:12 86° NW 08:58:33 10° NE
STARLINK-1241 3.9 08:51:51 10° NW 08:55:59 74° NE 09:00:07 10° SE
STARLINK-1203 3.9 08:52:01 10° NW 08:56:13 76° NE 09:00:25 10° SE
STARLINK-1207 3.0 08:53:52 11° SW 08:56:58 82° NW 09:00:18 10° NE
STARLINK-1266 3.0 08:55:37 11° SW 08:58:48 79° NW 09:02:08 10° NE
STARLINK-33 3.7 08:56:40 10° WSW 08:59:44 43° NW 09:02:50 10° NE
STARLINK-1284 3.1 08:57:24 10° SW 09:00:38 75° NW 09:03:58 10° NE
STARLINK-1239 3.7 08:56:49 10° NW 09:00:57 82° NE 09:05:06 10° SE
ADEOS II 4.0 08:58:20 10° NNW 09:01:00 14° WNW 09:03:40 10° W
SAR-Lupe-1 4.0 08:57:48 10° SSE 09:01:20 86° W 09:04:54 10° NNW
CZ-2C R/B 3.0 08:57:01 10° NNE 09:02:10 67° ESE 09:07:19 10° S
STARLINK-1258 3.1 08:59:06 10° SW 09:02:25 72° NW 09:05:45 10° NE
STARLINK-1292 3.1 09:00:07 10° SW 09:03:21 70° NW 09:06:38 10° NE
Cosmos 1869 4.2 09:01:37 10° NNW 09:04:56 28° W 09:08:15 10° SSW
Cosmos 2263 Rocket 2.1 08:59:45 10° NNW 09:05:22 78° WSW 09:10:55 10° SSE
STARLINK-1240 3.6 09:01:48 10° NW 09:05:57 89° NNE 09:10:06 10° SE
STARLINK-1274 3.2 09:02:50 10° WSW 09:06:08 66° NW 09:09:28 10° NE
Cosmos 2322 Rocket 2.2 09:00:52 10° SSW 09:06:30 85° WNW 09:12:10 10° NNE
STARLINK-1289 3.2 09:03:41 10° WSW 09:06:57 64° NW 09:10:14 10° NE
STARLINK-66 4.0 09:05:26 10° WSW 09:08:24 35° NW 09:11:24 10° NNE
STARLINK-80 3.7 09:05:09 10° WSW 09:08:53 57° NW 09:12:39 10° NE
STARLINK-1303 3.3 09:05:46 10° WSW 09:09:01 61° NW 09:12:17 10° NE
STARLINK-1216 3.6 09:06:46 10° NW 09:10:55 83° SW 09:15:03 10° SE
